User: anonymous   Login
Location: Gombori
(14.9797°N, 2.9419°W)
Time: 15:24:44
(UTC+00:00)
Language:

ATLAS 3B R/B - Orbit

View from above orbital plane
View from above orbital plane
View from above satellite
View from above satellite

Ground track
Ground track

The orbit data is extracted from the following two-line orbital elements,

1 28538U 05004B   21288.79450774 0.00000000  00000-0  00000-0 0    02
2 28538  63.8359 270.0219 0141952   0.7240 359.2760 13.43148191    05
Epoch (UTC): 15 October 2021 19:04:05
Eccentricity: 0.0141952
inclination: 63.8359°
perigee height: 991 km
apogee height: 1203 km
right ascension of ascending node: 270.0219°
argument of perigee: 0.7240°
revolutions per day: 13.43148191
mean anomaly at epoch: 359.2760°
orbit number at epoch: 0

The dashed part of the orbit path shows where the satellite is in the earth's shadow,  

DLR